This demonstration page uses our WeatherBlox Daily Observations layout. Learn more.

Left ArrowRight Arrow

44.8408, -93.29828

Hourly Observations for September 19, 2018

Temp ( °F °C ) Dew Point ( °F °C ) Humidity (%) Winds ( mph kmh ) Pressure ( in mb ) Visibility ( mi km ) Precip ( " mm )
12:12 am 00:12 Cloudy with Nearby Thunderstorms 62 16.7 61 16.1 96 96 NNE 5 7 29.97 1015 10 16 0.02 0.51
12:25 am 00:25 Cloudy 62 16.7 61 16.1 96 96 ENE 6 9 29.97 1015 10 16 0.02 0.51
12:53 am 00:53 Cloudy 62 16.7 61 16.1 96 96 E 7 11 30.00 1016 10 16 0.02 0.51
1:53 am 01:53 Cloudy 62 16.7 61 16.1 96 96 E 5 7 30.01 1016 10 16 0.00 0.00
2:53 am 02:53 Cloudy 62 16.7 61 16.1 96 96 NNE 6 9 30.01 1016 10 16 0.00 0.00
3:53 am 03:53 Cloudy 62 16.7 61 16.1 96 96 ENE 7 11 29.99 1016 10 16 0.00 0.00
4:43 am 04:43 Cloudy 61 16.1 61 16.1 100 100 E 9 15 29.94 1014 10 16 0.00 0.00
4:53 am 04:53 Cloudy 62 16.7 61 16.1 96 96 E 7 11 29.97 1015 10 16 0.00 0.00
5:53 am 05:53 Cloudy 62 16.7 62 16.7 100 100 NE 6 9 29.99 1016 9 14 0.00 0.00
6:53 am 06:53 Cloudy 62 16.7 62 16.7 100 100 ENE 7 11 30.00 1016 7 11 0.00 0.00
7:23 am 07:23 Cloudy with Mist and Fog 62 16.7 62 16.7 100 100 ENE 6 9 30.00 1016 2 3 0.00 0.00
7:39 am 07:39 Cloudy with Mist and Fog 62 16.7 62 16.7 100 100 NE 6 9 30.00 1016 1 2 0.00 0.00
7:53 am 07:53 Cloudy with Mist and Fog 62 16.7 62 16.7 100 100 NNE 6 9 30.02 1017 1 2 0.00 0.00
8:39 am 08:39 Cloudy with Mist and Fog 61 16.1 61 16.1 100 100 NNE 9 15 30.00 1016 1 1 0.00 0.00
8:53 am 08:53 Cloudy with Mist and Fog 61 16.1 61 16.1 100 100 N 6 9 30.03 1017 1 1 0.00 0.00
9:53 am 09:53 Cloudy with Mist and Fog 60 15.6 60 15.6 100 100 NNE 10 17 30.03 1017 1 1 0.00 0.00
10:07 am 10:07 Cloudy with Mist and Fog 60 15.6 60 15.6 100 100 N 12 19 30.00 1016 2 3 0.00 0.00
10:43 am 10:43 Cloudy with Light Rain 59 15 59 15 100 100 NE 8 13 30.03 1017 8 13 0.17 4.32
10:53 am 10:53 Cloudy with Light Rain 60 15.6 59 15 96 96 E 12 19 30.04 1017 8 13 0.17 4.32
11:53 am 11:53 Cloudy with Light Rain 61 16.1 60 15.6 97 97 E 13 20 29.99 1016 8 13 0.01 0.25
12:53 pm 12:53 Cloudy 62 16.7 61 16.1 96 96 N 8 13 30.01 1016 10 16 0.00 0.03
1:53 pm 13:53 Cloudy 62 16.7 61 16.1 96 96 NE 10 17 29.99 1016 7 11 0.00 0.00
2:53 pm 14:53 Cloudy 63 17.2 61 16.1 93 93 NE 8 13 29.96 1014 7 11 0.00 0.00
3:43 pm 15:43 Cloudy 64 17.8 62 16.7 93 93 NNW 5 7 29.97 1015 7 11 0.00 0.00
3:53 pm 15:53 Cloudy 63 17.2 62 16.7 97 97 NNW 5 7 30.02 1017 7 11 0.00 0.00
4:10 pm 16:10 Cloudy with Drizzle 63 17.2 62 16.7 97 97 N 5 7 29.97 1015 3 4 0.00 0.03
4:15 pm 16:15 Cloudy with Drizzle 63 17.2 62 16.7 97 97 NNE 6 9 29.97 1015 2 3 0.00 0.03
4:44 pm 16:44 Cloudy with Drizzle 63 17.2 63 17.2 100 100 NNE 8 13 29.94 1014 1 2 0.00 0.03
4:51 pm 16:51 Cloudy with Drizzle 63 17 63 17 100 100 NE 8 13 29.94 1014 1 2 0.00 0.03
4:53 pm 16:53 Cloudy with Drizzle 63 17.2 63 17.2 100 100 NE 8 13 29.96 1015 1 2 0.00 0.03
5:16 pm 17:16 Cloudy with Mist and Fog 63 17.2 63 17.2 100 100 ESE 20 31 29.91 1013 3 4 0.00 0.03
5:31 pm 17:31 Cloudy with Light Rain 64 17.8 64 17.8 100 100 N 14 22 29.94 1014 6 10 0.00 0.03
5:51 pm 17:51 Cloudy 64 18 64 18 100 100 NNE 12 19 29.94 1014 9 14 0.00 0.03
5:53 pm 17:53 Cloudy 64 17.8 64 17.8 100 100 NNE 15 24 29.95 1014 8 13 0.00 0.03
6:05 pm 18:05 Cloudy with Light Rain 62 16.7 62 16.7 100 100 N 12 19 29.94 1014 4 6 0.00 0.03
6:24 pm 18:24 Cloudy 62 16.7 61 16.1 96 96 NNE 6 9 29.97 1015 10 16 0.00 0.03
6:53 pm 18:53 Cloudy 61 16.1 61 16.1 100 100 N 7 11 30.00 1016 10 16 0.00 0.03
7:14 pm 19:14 Cloudy 61 16.1 61 16.1 100 100 N 9 15 29.97 1015 10 16 0.00 0.00
7:53 pm 19:53 Cloudy 60 15.6 60 15.6 100 100 NNE 10 17 30.01 1016 10 16 0.00 0.00
8:53 pm 20:53 Cloudy 60 15.6 60 15.6 100 100 NE 10 17 29.99 1016 8 13 0.00 0.00
9:04 pm 21:04 Cloudy 60 15.6 60 15.6 100 100 N 12 19 29.97 1015 7 11 0.00 0.00
9:53 pm 21:53 Cloudy with Mist and Fog 60 15.6 60 15.6 100 100 NE 10 17 29.99 1016 6 10 0.00 0.00
10:53 pm 22:53 Cloudy with Mist and Fog 59 15 59 15 100 100 NNE 13 20 29.98 1015 5 8 0.00 0.00
11:53 pm 23:53 Cloudy with Mist and Fog 59 15 59 15 100 100 NNE 8 13 30.01 1016 4 6 0.00 0.00

Powered by AerisWeather